Regional Weather Roundup
Issued by NWS

Home | Current Version | Previous Version | Text Only | Print | Product List | Glossary Off
Versions: 1 2 3 4 5 6 7 8 9 10 11 12 13 14 15 16 17 18 19 20 21 22 23 24 25 26 27 28 29 30 31 32 33 34 35 36 37 38 39 40 41 42 43 44 45 46 47 48 49 50

000
ASUS43 KMKX 290621
RWRWI

WISCONSIN REGIONAL WEATHER ROUNDUP
NATIONAL WEATHER SERVICE MILWAUKEE/SULLIVAN WI
100 AM CDT SUN MAR 29 2015

NOTE: "FAIR" INDICATES FEW OR NO CLOUDS BELOW 12,000 FEET WITH NO
SIGNIFICANT WEATHER AND/OR OBSTRUCTIONS TO VISIBILITY.

WIZ001-002-006>008-014>016-023>028-290700-
NORTHWEST WISCONSIN

CITY           SKY/WX    TMP DP  RH WIND       PRES   REMARKS
SUPERIOR ARPT  MOCLDY    35  19  51 SW10G21   29.84F WCI  28
6HR MIN TEMP:  35; 6HR MAX TEMP:  41;

ASHLAND        MOCLDY    35  14  42 S17G24    29.88F WCI  25
6HR MIN TEMP:  34; 6HR MAX TEMP:  40;

HAYWARD        MOCLDY    35  14  42 S20G31    29.90F WCI  24
6HR MIN TEMP:  33; 6HR MAX TEMP:  39;

SIREN          PTCLDY    35  17  47 S15G22    29.88F WCI  26
6HR MIN TEMP:  34; 6HR MAX TEMP:  38;

CUMBERLAND     MOCLDY    32  18  55 S14       29.91F WCI  22
RICE LAKE      MOCLDY    33  16  49 S13       29.94F WCI  24
6HR MIN TEMP:  32; 6HR MAX TEMP:  38;

CHETEK         MOCLDY    33  16  50 SE10G20   29.94F WCI  25
6HR MIN TEMP:  32; 6HR MAX TEMP:  37;

LADYSMITH      CLOUDY    33  16  48 S10G17    29.97F WCI  25
6HR MIN TEMP:  33; 6HR MAX TEMP:  39;

EAU CLAIRE     MOCLDY    34  14  43 S16       29.97F WCI  24
6HR MIN TEMP:  33; 6HR MAX TEMP:  37;

MENOMONIE      MOCLDY    36  15  41 S15       29.96F WCI  26
6HR MIN TEMP:  31; 6HR MAX TEMP:  38;

NEW RICHMOND   MOCLDY    34  18  52 S16       29.91F WCI  24
6HR MIN TEMP:  33; 6HR MAX TEMP:  37;

OSCEOLA        PTCLDY    36  19  49 S18       29.93F WCI  25
6HR MIN TEMP:  34; 6HR MAX TEMP:  39;

$$

WIZ003>005-009-010-017-018-290700-
NORTH CENTRAL WISCONSIN

CITY           SKY/WX    TMP DP  RH WIND       PRES   REMARKS
MANITOWISH WTR FAIR      30  12  47 S12G17    29.93F WCI  21
6HR MIN TEMP:  30; 6HR MAX TEMP:  36;

ARBOR VITAE    MOCLDY    32  14  47 S13G21    29.95F WCI  22
6HR MIN TEMP:  32; 6HR MAX TEMP:  37;

WOODRUFF       MOCLDY    32  14  47 S13G21    29.95F WCI  22
6HR MIN TEMP:  32; 6HR MAX TEMP:  37;

RHINELANDER    MOCLDY    30  13  49 S12       29.99F WCI  20
6HR MIN TEMP:  30; 6HR MAX TEMP:  35;

EAGLE RIVER    PTCLDY    30  10  44 S7        29.96F WCI  23
6HR MIN TEMP:  30; 6HR MAX TEMP:  35;

LAND O LAKES   PTCLDY    31  11  43 S8        29.95F WCI  23
6HR MIN TEMP:  31; 6HR MAX TEMP:  35;

PHILLIPS       PTCLDY    31  14  48 S13       29.94F WCI  21
6HR MIN TEMP:  31; 6HR MAX TEMP:  37;

TOMAHAWK       MOCLDY    30  15  53 CALM      30.00F
6HR MIN TEMP:  29; 6HR MAX TEMP:  35;

MEDFORD        MOCLDY    31  17  57 S14       30.00F WCI  20
6HR MIN TEMP:  30; 6HR MAX TEMP:  35;

MERRILL        MOCLDY    31  15  51 S7        30.02F WCI  24
6HR MIN TEMP:  31; 6HR MAX TEMP:  37;

$$

WIZ029-030-035-036-043>047-290700-
CENTRAL WISCONSIN

CITY           SKY/WX    TMP DP  RH WIND       PRES   REMARKS
WAUSAU         MOCLDY    31  15  52 S12       30.03F WCI  22
6HR MIN TEMP:  31; 6HR MAX TEMP:  37;

MOSINEE        MOCLDY    30  18  59 S12       30.05F WCI  21
MARSHFIELD     MOCLDY    32  14  47 S12       30.04F WCI  23
6HR MIN TEMP:  30; 6HR MAX TEMP:  37;

STEVENS POINT  MOCLDY    29  14  52 S12       30.07F WCI  19
6HR MIN TEMP:  28; 6HR MAX TEMP:  35;

WAUPACA        PTCLDY    32  16  50 S9        30.12F WCI  24
6HR MIN TEMP:  29; 6HR MAX TEMP:  39;

WAUTOMA        PTCLDY    31  16  54 S7        30.12F WCI  24
6HR MIN TEMP:  29; 6HR MAX TEMP:  38;

WISC RAPIDS    MOCLDY    31  11  43 S10       30.08F WCI  22
6HR MIN TEMP:  30; 6HR MAX TEMP:  38;

CAMP DOUGLAS   CLOUDY    32  14  46 S7        30.07F WCI  26
6HR MIN TEMP:  27; 6HR MAX TEMP:  37;

$$

WIZ011>013-019>022-031-037>040-048>050-290700-
NORTHEAST WISCONSIN

CITY           SKY/WX    TMP DP  RH WIND       PRES   REMARKS
ANTIGO         PTCLDY    29  16  58 S12       30.03F WCI  19
6HR MIN TEMP:  28; 6HR MAX TEMP:  33;

SHAWANO        PTCLDY    32  17  52 S3        30.11F
6HR MIN TEMP:  32; 6HR MAX TEMP:  39;

OCONTO         FAIR      28  19  69 S5        30.12F WCI  23
6HR MIN TEMP:  28; 6HR MAX TEMP:  35;

STURGEON BAY   CLEAR     27  18  69 S12       30.15F WCI  16
6HR MIN TEMP:  27; 6HR MAX TEMP:  28;

GREEN BAY      PTCLDY    28  20  71 S9        30.14F WCI  19
6HR MIN TEMP:  28; 6HR MAX TEMP:  36;

MANITOWOC      CLEAR     27  19  72 S12       30.18F WCI  17
6HR MIN TEMP:  27; 6HR MAX TEMP:  30;

APPLETON       PTCLDY    30  18  59 S9        30.13F WCI  22
CLINTONVILLE   PTCLDY    32  16  51 S9        30.11F WCI  24
OSHKOSH        CLEAR     24  18  77 S9        30.15F WCI  14
6HR MIN TEMP:  24; 6HR MAX TEMP:  36;

$$

WIZ032>034-041-042-053>061-290700-
SOUTHWEST WISCONSIN

CITY           SKY/WX    TMP DP  RH WIND       PRES   REMARKS
LA CROSSE      CLOUDY    37  16  42 S16G24    30.04F WCI  28
6HR MIN TEMP:  34; 6HR MAX TEMP:  40;

SPARTA         CLOUDY    34  12  40 S15G22    30.07F WCI  24
6HR MIN TEMP:  26; 6HR MAX TEMP:  37;

VIROQUA        CLOUDY    32  16  50 S13G18    30.06F WCI  22
6HR MIN TEMP:  31; 6HR MAX TEMP:  35;

BOSCOBEL       MOCLDY    34  14  43 S8        30.12F WCI  27
6HR MIN TEMP:  34; 6HR MAX TEMP:  40;

PRAIRIE DU CHI MOCLDY    35  14  42 SE5       30.11F WCI  31
6HR MIN TEMP:  33; 6HR MAX TEMP:  39;

PLATTEVILLE    PTCLDY    31  19  61 SE9       30.13F WCI  22
6HR MIN TEMP:  28; 6HR MAX TEMP:  37;

$$

WIZ056-057-062-063-064-067-068-290700-
SOUTH CENTRAL WISCONSIN

CITY           SKY/WX    TMP DP  RH WIND       PRES   REMARKS
REEDSBURG      PTCLDY    31  15  50 S8        30.11F WCI  24
6HR MIN TEMP:  30; 6HR MAX TEMP:  35;

BARABOO/DELLS  PTCLDY    31  15  51 S10       30.11F WCI  22
6HR MIN TEMP:  27; 6HR MAX TEMP:  35;

LONE ROCK      MOCLDY    33  15  47 S8        30.14F WCI  26
6HR MIN TEMP:  26; 6HR MAX TEMP:  37;

MINERAL POINT  MOCLDY    30  18  59 S9        30.12F WCI  22
MADISON        PTCLDY    32  15  49 S10       30.16F WCI  24
6HR MIN TEMP:  31; 6HR MAX TEMP:  36;

MIDDLETON      PTCLDY    32  14  46 S10       30.15F WCI  24
6HR MIN TEMP:  32; 6HR MAX TEMP:  37;

WATERTOWN      PTCLDY    26  16  68 S6        30.17F WCI  19
6HR MIN TEMP:  25; 6HR MAX TEMP:  35;

MONROE         PTCLDY    30  19  64 S13       30.15F WCI  20
JANESVILLE     PTCLDY    32  16  51 S8        30.19F WCI  25
$$

WIZ051-052-058>065-066-070>072-290700-
SOUTHEAST WISCONSIN

CITY           SKY/WX    TMP DP  RH WIND       PRES   REMARKS
MILWAUKEE      PTCLDY    25  12  58 S8        30.22F WCI  16
6HR MIN TEMP:  25; 6HR MAX TEMP:  30;

WAUKESHA       CLEAR     25  12  58 S6        30.20F WCI  18
MILWAUKEE/TIMM CLEAR     27  12  54 S7        30.22F WCI  19
RACINE         CLEAR     27  12  53 S7        30.24F WCI  19
6HR MIN TEMP:  25; 6HR MAX TEMP:  29;

BURLINGTON     CLEAR     24  12  61 S6        30.21F WCI  17
6HR MIN TEMP:  21; 6HR MAX TEMP:  32;

KENOSHA        CLEAR     25  12  58 S8        30.23F WCI  16
6HR MIN TEMP:  23; 6HR MAX TEMP:  29;

FOND DU LAC    CLEAR     27  17  66 S9        30.16F WCI  18
6HR MIN TEMP:  23; 6HR MAX TEMP:  36;

SHEBOYGAN      PTCLDY    22  15  75 MISG      30.18F
6HR MIN TEMP:  22; 6HR MAX TEMP:  29;

WEST BEND      PTCLDY    27  12  54 S6        30.18F WCI  20
JUNEAU         PTCLDY    26  17  68 SE9       30.18F WCI  16
6HR MIN TEMP:  26; 6HR MAX TEMP:  34;

$$

LSZ147-162-290700-
LAKE SUPERIOR

STATION/POSITION TIME  TEMP    WIND        PRES    WAVE
                       AIR SEA DIR/SP/G            HT/PER
                 (UTC) (F)     (DEG/KT/KT) (MB)    (FT/S)
DEVILS ISLAND    0600   35     190/ 12/ 17 1011.7F
PORT WING        0500   37     190/ 14/ 19 1012.2F
SAXON HARBOR     0500   36     180/ 11/ 22 1013.2
$$

LMZ867-665-643>646-290700-
LAKE MICHIGAN

STATION/POSITION TIME  TEMP    WIND        PRES    WAVE


USA.gov is the U.S. government's official web portal to all federal, state and local government web resources and services.